Time,TemperatureF,DewpointF,PressureIn,WindDirection,WindDirectionDegrees,WindSpeedMPH,WindSpeedGustMPH,Humidity,HourlyPrecipIn,Conditions,Clouds,dailyrainin,SolarRadiationWatts/m^2,SoftwareType,DateUTC
2013-02-12 00:01:00,17.0,14.0,-100.00,East,90,3.0,9.0,90,0.00,,,0.00,0.700000,,2013-02-12 09:01:00,
2013-02-12 00:11:00,17.0,14.0,-100.00,East,90,3.0,9.0,90,0.00,,,0.00,0.700000,,2013-02-12 09:11:00,
2013-02-12 00:21:00,17.0,14.0,-100.00,East,90,3.0,9.0,90,0.00,,,0.00,0.700000,,2013-02-12 09:21:00,
2013-02-12 00:31:00,17.0,14.0,-100.00,East,90,3.0,9.0,90,0.00,,,0.00,0.700000,,2013-02-12 09:31:00,
2013-02-12 00:41:00,17.0,14.0,-100.00,East,90,3.0,9.0,90,0.00,,,0.00,0.700000,,2013-02-12 09:41:00,
2013-02-12 00:43:00,16.0,13.0,-100.00,SE,127,5.0,9.0,89,0.00,,,0.00,0.700000,,2013-02-12 09:43:00,
2013-02-12 01:01:00,16.0,13.0,-100.00,SE,127,5.0,9.0,89,0.00,,,0.00,0.700000,,2013-02-12 10:01:00,
2013-02-12 01:11:00,16.0,13.0,-100.00,SE,127,5.0,9.0,89,0.00,,,0.00,0.700000,,2013-02-12 10:11:00,
2013-02-12 01:21:00,16.0,13.0,-100.00,SE,127,5.0,9.0,89,0.00,,,0.00,0.700000,,2013-02-12 10:21:00,
2013-02-12 01:31:00,16.0,13.0,-100.00,SE,127,5.0,9.0,89,0.00,,,0.00,0.700000,,2013-02-12 10:31:00,
2013-02-12 02:01:00,16.0,13.0,-100.00,SE,125,6.0,10.0,89,0.00,,,0.00,0.700000,,2013-02-12 11:01:00,
2013-02-12 02:11:00,16.0,13.0,-100.00,SE,125,6.0,10.0,89,0.00,,,0.00,0.700000,,2013-02-12 11:11:00,
2013-02-12 02:21:00,16.0,13.0,-100.00,SE,125,6.0,10.0,89,0.00,,,0.00,0.700000,,2013-02-12 11:21:00,
2013-02-12 02:31:00,16.0,13.0,-100.00,SE,125,6.0,10.0,89,0.00,,,0.00,0.700000,,2013-02-12 11:31:00,
2013-02-12 02:41:00,16.0,13.0,-100.00,SE,125,6.0,10.0,89,0.00,,,0.00,0.700000,,2013-02-12 11:41:00,
2013-02-12 03:01:00,17.0,14.0,-100.00,SE,136,7.0,11.0,90,0.00,,,0.00,0.700000,,2013-02-12 12:01:00,
2013-02-12 03:11:00,17.0,14.0,-100.00,SE,136,7.0,11.0,90,0.00,,,0.00,0.700000,,2013-02-12 12:11:00,
2013-02-12 03:21:00,17.0,14.0,-100.00,SE,136,7.0,11.0,90,0.00,,,0.00,0.700000,,2013-02-12 12:21:00,
2013-02-12 03:32:00,17.0,14.0,-100.00,SE,136,7.0,11.0,90,0.00,,,0.00,0.700000,,2013-02-12 12:32:00,
2013-02-12 03:41:00,17.0,14.0,-100.00,SE,136,7.0,11.0,90,0.00,,,0.00,0.700000,,2013-02-12 12:41:00,
2013-02-12 04:01:00,17.0,14.0,-100.00,SE,134,6.0,11.0,90,0.00,,,0.00,0.700000,,2013-02-12 13:01:00,
2013-02-12 04:11:00,17.0,14.0,-100.00,SE,134,6.0,11.0,90,0.00,,,0.00,0.700000,,2013-02-12 13:11:00,
2013-02-12 04:22:00,17.0,14.0,-100.00,SE,134,6.0,11.0,90,0.00,,,0.00,0.700000,,2013-02-12 13:22:00,
2013-02-12 04:31:00,17.0,14.0,-100.00,SE,134,6.0,11.0,90,0.00,,,0.00,0.700000,,2013-02-12 13:31:00,
2013-02-12 04:42:00,17.0,14.0,-100.00,SE,134,6.0,11.0,90,0.00,,,0.00,0.700000,,2013-02-12 13:42:00,
2013-02-12 05:01:00,18.0,15.0,-100.00,SE,130,8.0,10.0,91,0.00,,,0.00,0.700000,,2013-02-12 14:01:00,
2013-02-12 05:11:00,18.0,15.0,-100.00,SE,130,8.0,10.0,91,0.00,,,0.00,0.700000,,2013-02-12 14:11:00,
2013-02-12 05:21:00,18.0,15.0,-100.00,SE,130,8.0,10.0,91,0.00,,,0.00,0.700000,,2013-02-12 14:21:00,
2013-02-12 05:31:00,18.0,15.0,-100.00,SE,130,8.0,10.0,91,0.00,,,0.00,0.700000,,2013-02-12 14:31:00,
2013-02-12 05:41:00,18.0,15.0,-100.00,SE,130,8.0,10.0,91,0.00,,,0.00,0.700000,,2013-02-12 14:41:00,
2013-02-12 06:01:00,18.0,15.0,-100.00,SE,132,6.0,11.0,91,0.00,,,0.00,0.700000,,2013-02-12 15:01:00,
2013-02-12 06:11:00,18.0,15.0,-100.00,SE,132,6.0,11.0,91,0.00,,,0.00,0.700000,,2013-02-12 15:11:00,
2013-02-12 06:21:00,18.0,15.0,-100.00,SE,132,6.0,11.0,91,0.00,,,0.00,0.700000,,2013-02-12 15:21:00,
2013-02-12 06:32:00,18.0,15.0,-100.00,SE,132,6.0,11.0,91,0.00,,,0.00,0.700000,,2013-02-12 15:32:00,
2013-02-12 06:41:00,18.0,15.0,-100.00,SE,132,6.0,11.0,91,0.00,,,0.00,0.700000,,2013-02-12 15:41:00,
2013-02-12 07:01:00,18.0,16.0,-100.00,SE,132,5.0,12.0,91,0.00,,,0.00,0.700000,,2013-02-12 16:01:00,
2013-02-12 07:11:00,18.0,16.0,-100.00,SE,132,5.0,12.0,91,0.00,,,0.00,0.700000,,2013-02-12 16:11:00,
2013-02-12 07:22:00,18.0,16.0,-100.00,SE,132,5.0,12.0,91,0.00,,,0.00,0.700000,,2013-02-12 16:22:00,
2013-02-12 07:31:00,18.0,16.0,-100.00,SE,132,5.0,12.0,91,0.00,,,0.00,0.700000,,2013-02-12 16:31:00,
2013-02-12 07:41:00,18.0,16.0,-100.00,SE,132,5.0,12.0,91,0.00,,,0.00,0.700000,,2013-02-12 16:41:00,
2013-02-12 08:01:00,18.0,16.0,-100.00,SE,133,6.0,6.0,91,0.00,,,-99.99,0.700000,,2013-02-12 17:01:00,
2013-02-12 08:11:00,18.0,16.0,-100.00,SE,133,6.0,6.0,91,0.00,,,-99.99,0.700000,,2013-02-12 17:11:00,
2013-02-12 08:21:00,18.0,16.0,-100.00,SE,133,6.0,6.0,91,0.00,,,-99.99,0.700000,,2013-02-12 17:21:00,
2013-02-12 08:31:00,18.0,16.0,-100.00,SE,133,6.0,6.0,91,0.00,,,-99.99,0.700000,,2013-02-12 17:31:00,
2013-02-12 08:41:00,18.0,16.0,-100.00,SE,133,6.0,6.0,91,0.00,,,-99.99,0.700000,,2013-02-12 17:41:00,
2013-02-12 09:01:00,18.0,16.0,-100.00,SE,133,6.0,7.0,91,0.00,,,0.00,1.100000,,2013-02-12 18:01:00,
2013-02-12 09:11:00,18.0,16.0,-100.00,SE,133,6.0,7.0,91,0.00,,,0.00,1.100000,,2013-02-12 18:11:00,
2013-02-12 09:22:00,18.0,16.0,-100.00,SE,133,6.0,7.0,91,0.00,,,0.00,1.100000,,2013-02-12 18:22:00,
2013-02-12 09:31:00,18.0,16.0,-100.00,SE,133,6.0,7.0,91,0.00,,,0.00,1.100000,,2013-02-12 18:31:00,
2013-02-12 09:41:00,18.0,16.0,-100.00,SE,133,6.0,7.0,91,0.00,,,0.00,1.100000,,2013-02-12 18:41:00,
2013-02-12 10:02:00,18.0,16.0,-100.00,ESE,119,6.0,8.0,91,0.00,,,-99.99,18.000000,,2013-02-12 19:02:00,
2013-02-12 10:11:00,18.0,16.0,-100.00,ESE,119,6.0,8.0,91,0.00,,,-99.99,18.000000,,2013-02-12 19:11:00,
2013-02-12 10:21:00,18.0,16.0,-100.00,ESE,119,6.0,8.0,91,0.00,,,-99.99,18.000000,,2013-02-12 19:21:00,
2013-02-12 10:31:00,18.0,16.0,-100.00,ESE,119,6.0,8.0,91,0.00,,,-99.99,18.000000,,2013-02-12 19:31:00,
2013-02-12 10:41:00,18.0,16.0,-100.00,ESE,119,6.0,8.0,91,0.00,,,-99.99,18.000000,,2013-02-12 19:41:00,
2013-02-12 11:01:00,19.0,16.0,-100.00,ESE,116,6.0,9.0,91,0.00,,,-99.99,63.500000,,2013-02-12 20:01:00,
2013-02-12 11:11:00,19.0,16.0,-100.00,ESE,116,6.0,9.0,91,0.00,,,-99.99,63.500000,,2013-02-12 20:11:00,
2013-02-12 11:21:00,19.0,16.0,-100.00,ESE,116,6.0,9.0,91,0.00,,,-99.99,63.500000,,2013-02-12 20:21:00,
2013-02-12 11:31:00,19.0,16.0,-100.00,ESE,116,6.0,9.0,91,0.00,,,-99.99,63.500000,,2013-02-12 20:31:00,
2013-02-12 11:41:00,19.0,16.0,-100.00,ESE,116,6.0,9.0,91,0.00,,,-99.99,63.500000,,2013-02-12 20:41:00,
2013-02-12 12:01:00,19.0,17.0,-100.00,ESE,119,6.0,9.0,91,0.00,,,0.00,122.300003,,2013-02-12 21:01:00,
2013-02-12 12:11:00,19.0,17.0,-100.00,ESE,119,6.0,9.0,91,0.00,,,0.00,122.300003,,2013-02-12 21:11:00,
2013-02-12 12:21:00,19.0,17.0,-100.00,ESE,119,6.0,9.0,91,0.00,,,0.00,122.300003,,2013-02-12 21:21:00,
2013-02-12 12:31:00,19.0,17.0,-100.00,ESE,119,6.0,9.0,91,0.00,,,0.00,122.300003,,2013-02-12 21:31:00,
2013-02-12 12:41:00,19.0,17.0,-100.00,ESE,119,6.0,9.0,91,0.00,,,0.00,122.300003,,2013-02-12 21:41:00,
2013-02-12 13:01:00,20.0,18.0,-100.00,ESE,121,7.0,8.0,92,0.00,,,0.00,237.600006,,2013-02-12 22:01:00,
2013-02-12 13:12:00,20.0,18.0,-100.00,ESE,121,7.0,8.0,92,0.00,,,0.00,237.600006,,2013-02-12 22:12:00,
2013-02-12 13:21:00,20.0,18.0,-100.00,ESE,121,7.0,8.0,92,0.00,,,0.00,237.600006,,2013-02-12 22:21:00,
2013-02-12 13:31:00,20.0,18.0,-100.00,ESE,121,7.0,8.0,92,0.00,,,0.00,237.600006,,2013-02-12 22:31:00,
2013-02-12 13:41:00,20.0,18.0,-100.00,ESE,121,7.0,8.0,92,0.00,,,0.00,237.600006,,2013-02-12 22:41:00,
2013-02-12 14:01:00,20.0,19.0,-100.00,ESE,117,8.0,10.0,92,0.00,,,0.00,267.600006,,2013-02-12 23:01:00,
2013-02-12 14:11:00,20.0,19.0,-100.00,ESE,117,8.0,10.0,92,0.00,,,0.00,267.600006,,2013-02-12 23:11:00,
2013-02-12 14:21:00,20.0,19.0,-100.00,ESE,117,8.0,10.0,92,0.00,,,0.00,267.600006,,2013-02-12 23:21:00,
2013-02-12 14:31:00,20.0,19.0,-100.00,ESE,117,8.0,10.0,92,0.00,,,0.00,267.600006,,2013-02-12 23:31:00,
2013-02-12 14:41:00,20.0,19.0,-100.00,ESE,117,8.0,10.0,92,0.00,,,0.00,267.600006,,2013-02-12 23:41:00,
2013-02-12 15:02:00,19.0,17.0,-100.00,ESE,121,9.0,11.0,92,0.00,,,0.00,219.899994,,2013-02-13 00:02:00,
2013-02-12 15:11:00,19.0,17.0,-100.00,ESE,121,9.0,11.0,92,0.00,,,0.00,219.899994,,2013-02-13 00:11:00,
2013-02-12 15:21:00,19.0,17.0,-100.00,ESE,121,9.0,11.0,92,0.00,,,0.00,219.899994,,2013-02-13 00:21:00,
2013-02-12 15:32:00,19.0,17.0,-100.00,ESE,121,9.0,11.0,92,0.00,,,0.00,219.899994,,2013-02-13 00:32:00,
2013-02-12 15:42:00,19.0,17.0,-100.00,ESE,121,9.0,11.0,92,0.00,,,0.00,219.899994,,2013-02-13 00:42:00,
2013-02-12 16:42:00,19.0,17.0,-100.00,ESE,113,10.0,13.0,91,0.00,,,0.00,126.099998,,2013-02-13 01:42:00,
2013-02-12 17:11:00,19.0,17.0,-100.00,ESE,104,11.0,13.0,91,0.00,,,0.00,81.400002,,2013-02-13 02:11:00,
2013-02-12 17:21:00,19.0,17.0,-100.00,ESE,104,11.0,13.0,91,0.00,,,0.00,81.400002,,2013-02-13 02:21:00,
2013-02-12 17:31:00,19.0,17.0,-100.00,ESE,104,11.0,13.0,91,0.00,,,0.00,81.400002,,2013-02-13 02:31:00,
2013-02-12 17:41:00,19.0,17.0,-100.00,ESE,104,11.0,13.0,91,0.00,,,0.00,81.400002,,2013-02-13 02:41:00,
2013-02-12 18:01:00,20.0,18.0,-100.00,ESE,107,12.0,15.0,92,0.00,,,0.00,29.700001,,2013-02-13 03:01:00,
2013-02-12 18:11:00,20.0,18.0,-100.00,ESE,107,12.0,15.0,92,0.00,,,0.00,29.700001,,2013-02-13 03:11:00,
2013-02-12 18:21:00,20.0,18.0,-100.00,ESE,107,12.0,15.0,92,0.00,,,0.00,29.700001,,2013-02-13 03:21:00,
2013-02-12 18:32:00,20.0,18.0,-100.00,ESE,107,12.0,15.0,92,0.00,,,0.00,29.700001,,2013-02-13 03:32:00,
2013-02-12 18:41:00,20.0,18.0,-100.00,ESE,107,12.0,15.0,92,0.00,,,0.00,29.700001,,2013-02-13 03:41:00,
2013-02-12 19:01:00,20.0,18.0,-100.00,ESE,110,8.0,16.0,92,0.00,,,0.00,1.300000,,2013-02-13 04:01:00,
2013-02-12 19:11:00,20.0,18.0,-100.00,ESE,110,8.0,16.0,92,0.00,,,0.00,1.300000,,2013-02-13 04:11:00,
2013-02-12 19:21:00,20.0,18.0,-100.00,ESE,110,8.0,16.0,92,0.00,,,0.00,1.300000,,2013-02-13 04:21:00,
2013-02-12 19:31:00,20.0,18.0,-100.00,ESE,110,8.0,16.0,92,0.00,,,0.00,1.300000,,2013-02-13 04:31:00,
2013-02-12 19:41:00,20.0,18.0,-100.00,ESE,110,8.0,16.0,92,0.00,,,0.00,1.300000,,2013-02-13 04:41:00,
2013-02-12 20:01:00,20.0,18.0,-100.00,ESE,113,10.0,13.0,92,0.00,,,0.00,0.700000,,2013-02-13 05:01:00,
2013-02-12 20:11:00,20.0,18.0,-100.00,ESE,113,10.0,13.0,92,0.00,,,0.00,0.700000,,2013-02-13 05:11:00,
2013-02-12 20:22:00,20.0,18.0,-100.00,ESE,113,10.0,13.0,92,0.00,,,0.00,0.700000,,2013-02-13 05:22:00,
2013-02-12 20:31:00,20.0,18.0,-100.00,ESE,113,10.0,13.0,92,0.00,,,0.00,0.700000,,2013-02-13 05:31:00,
2013-02-12 20:41:00,20.0,18.0,-100.00,ESE,113,10.0,13.0,92,0.00,,,0.00,0.700000,,2013-02-13 05:41:00,
2013-02-12 21:02:00,19.0,17.0,-100.00,ESE,116,11.0,15.0,92,0.00,,,0.00,0.700000,,2013-02-13 06:02:00,
2013-02-12 21:11:00,19.0,17.0,-100.00,ESE,116,11.0,15.0,92,0.00,,,0.00,0.700000,,2013-02-13 06:11:00,
2013-02-12 21:21:00,19.0,17.0,-100.00,ESE,116,11.0,15.0,92,0.00,,,0.00,0.700000,,2013-02-13 06:21:00,
2013-02-12 21:31:00,19.0,17.0,-100.00,ESE,116,11.0,15.0,92,0.00,,,0.00,0.700000,,2013-02-13 06:31:00,
2013-02-12 21:41:00,19.0,17.0,-100.00,ESE,116,11.0,15.0,92,0.00,,,0.00,0.700000,,2013-02-13 06:41:00,
2013-02-12 22:02:00,19.0,16.0,-100.00,ESE,111,10.0,15.0,91,0.00,,,0.00,0.700000,,2013-02-13 07:02:00,
2013-02-12 22:11:00,19.0,16.0,-100.00,ESE,111,10.0,15.0,91,0.00,,,0.00,0.700000,,2013-02-13 07:11:00,
2013-02-12 22:21:00,19.0,16.0,-100.00,ESE,111,10.0,15.0,91,0.00,,,0.00,0.700000,,2013-02-13 07:21:00,
2013-02-12 22:31:00,19.0,16.0,-100.00,ESE,111,10.0,15.0,91,0.00,,,0.00,0.700000,,2013-02-13 07:31:00,
2013-02-12 22:41:00,19.0,16.0,-100.00,ESE,111,10.0,15.0,91,0.00,,,0.00,0.700000,,2013-02-13 07:41:00,
2013-02-12 23:01:00,18.0,16.0,-100.00,East,96,5.0,13.0,91,0.00,,,-99.99,0.700000,,2013-02-13 08:01:00,
2013-02-12 23:11:00,18.0,16.0,-100.00,East,96,5.0,13.0,91,0.00,,,-99.99,0.700000,,2013-02-13 08:11:00,
2013-02-12 23:21:00,18.0,16.0,-100.00,East,96,5.0,13.0,91,0.00,,,-99.99,0.700000,,2013-02-13 08:21:00,
2013-02-12 23:31:00,18.0,16.0,-100.00,East,96,5.0,13.0,91,0.00,,,-99.99,0.700000,,2013-02-13 08:31:00,
2013-02-12 23:42:00,18.0,16.0,-100.00,East,96,5.0,13.0,91,0.00,,,-99.99,0.700000,,2013-02-13 08:42:00,